This is the latest recevied weather packets stored in our database for station/object K4GDX. If no packets are shown the sender has not sent any weather packets the latest 10 day(s).
| Time | Temp. | Humidity | Pressure | Rain* | Wind** | Luminosity | Snow |
|---|---|---|---|---|---|---|---|
| 1777574994 | 27.78° C | 73% | 1008.3 hPa | 0 mm | - | 881 W/m² | - |
| 1777574690 | 27.78° C | 74% | 1008.3 hPa | 0 mm | - | 441 W/m² | - |
| 1777574390 | 28.33° C | 70% | 1008.4 hPa | 0 mm | - | 373 W/m² | - |
| 1777574092 | 28.89° C | 69% | 1008.5 hPa | 0 mm | - | 336 W/m² | - |
| 1777573786 | 29.44° C | 67% | 1008.5 hPa | 0 mm | - | 647 W/m² | - |
| 1777573489 | 29.44° C | 69% | 1008.5 hPa | 0 mm | - | 336 W/m² | - |
| 1777573165 | 29.44° C | 69% | 1008.4 hPa | 0 mm | - | 1097 W/m² | - |
| 1777572863 | 29.44° C | 69% | 1008.5 hPa | 0 mm | - | 279 W/m² | - |
| 1777572563 | 29.44° C | 67% | 1008.7 hPa | 0 mm | - | 336 W/m² | - |
| 1777572262 | 29.44° C | 66% | 1008.7 hPa | 0 mm | - | 380 W/m² | - |
| 1777571956 | 29.44° C | 67% | 1008.9 hPa | 0 mm | - | 582 W/m² | - |
| 1777571657 | 29.44° C | 71% | 1008.9 hPa | 0 mm | - | 1148 W/m² | - |
| 1777571356 | 28.33° C | 69% | 1009.1 hPa | 0 mm | - | 1208 W/m² | - |
| 1777571053 | 28.33° C | 70% | 1009.1 hPa | 0 mm | - | 1100 W/m² | - |
| 1777570753 | 28.33° C | 72% | 1009 hPa | 0 mm | - | 1030 W/m² | - |
| 1777570451 | 27.78° C | 74% | 1009.3 hPa | 0 mm | - | 967 W/m² | - |
| 1777570148 | 27.78° C | 72% | 1009.4 hPa | 0 mm | - | 1085 W/m² | - |
| 1777569847 | 28.33° C | 71% | 1009.6 hPa | 0 mm | - | 1216 W/m² | - |
| 1777569553 | 28.33° C | 67% | 1009.6 hPa | 0 mm | - | 341 W/m² | - |
| 1777569255 | 28.33° C | 64% | 1009.6 hPa | 0 mm | - | 179 W/m² | - |
| 1777568955 | 28.89° C | 63% | 1009.7 hPa | 0 mm | - | 179 W/m² | - |
| 1777568645 | 28.89° C | 60% | 1009.6 hPa | 0 mm | - | 185 W/m² | - |
| 1777568349 | 29.44° C | 60% | 1009.5 hPa | 0 mm | - | 258 W/m² | - |
| 1777568043 | 29.44° C | 59% | 1009.6 hPa | 0 mm | - | 229 W/m² | - |
| 1777567745 | 30° C | 60% | 1009.7 hPa | 0 mm | - | 279 W/m² | - |
* Rain latest hour (hover to see other rain measurements)
** Current wind speed in m/s (hover to see current wind gust speed)